星链-32503 (STARLINK-32503)

导读

STARLINK-32503是美国SpaceX公司星链(Starlink)星座的一颗低轨通信卫星,于2024年11月30日发射入轨。 星链项目旨在通过大规模低轨卫星星座为全球提供高速低延迟宽带互联网服务,STARLINK-32503属于星链卫星技术迭代后的型号,配备激光星间链路,可支持地面终端直连,助力扩展全球网络覆盖,尤其服务偏远地区与特殊场景通信需求,同时也延续了星链项目在太空轨道利用等方面的争议。

基本信息
目录编号:
62157
目录名称:
STARLINK-32503
国际标识:
2024-224U
轨道中心:
EARTH
卫星名称:
星链-32503
卫星全名:
星链-32503 (STARLINK-32503)
卫星状态:
在轨 (已飞行650 天)
发射日期:
2024-11-30 UTC
国别 :
美国 (US)
星等 :
--
该卫星已列入 空间交会检测服务 Space Conjunction Data Service (SCDS) ,当前飞行风险评估等级: 无高风险
轨道信息
数据来源 国际轨道数据 AOE轨道数据
星历时间 2026-09-11T14:04:36+0800
11小时前
查看轨道信息
2026-09-09T23:00:00+0800
2天前
查看轨道信息
半长轴 6861.092km 6861.158km
偏心率 0.0001409 0.0001284
轨道倾角 43.001° 42.999°
近地点辐角 281.280° 237.274°
升交点赤经 197.566° 206.761°
平近点角 78.790° 158.320°
近地点 481.988km 482.14km
远地点 483.922km 483.902km
周期 94.265分钟 94.266分钟
每日圈数 15.276116 15.275895
详细信息
固有亮度:
5
最大亮度:
2.5
卫星平台:
Starlink V1.0
覆盖范围:
全球
运营商:
太空探索技术公司
运营商所在国:
美国
制造商(研发单位):
太空探索技术公司
制造商所在国:
美国
使用方式:
暂无
卫星简介
Starlink 计划是 SpaceX 推出的全球卫星互联网项目,通过发射低轨道卫星,为全球尤其是偏远地区提供高速、低延迟的互联网服务。自 2019 年起,Starlink 已部署数千颗卫星,旨在缩小全球数字鸿沟,推动互联网普及。该项目还为军事、航空等行业提供通信支持,带来广泛经济效益。
2D轨道图
3D轨道图
轨道高度分析图
轨道倾角分析图
轨道综合分析图
查看轨道综合分析图
交会数据列表
事件ID 空间交会对象 最接近时刻(TCA) 交会距离 交会风险概率(CRP) 交会风险指数(CRI) 操作
CDM_260910-012706-215706-438521
2026-09-10T
01:27:37+0000
0.727 km
远距离
1.639415E-5 中风险 0.59
CDM_260910-034806-215706-438521
2026-09-10T
03:48:50+0000
1.220 km
极远距离
2.868001E-6 低风险 0.44
CDM_260904-031005-864806-215722
2026-09-04T
03:10:14+0000
2.029 km
极远距离
1.826703E-6 低风险 0.4
CDM_260903-232806-215706-261223
2026-09-03T
23:28:17+0000
2.788 km
极远距离
1.258577E-6 低风险 0.37
CDM_260912-060406-215706-435521
2026-09-12T
06:04:15+0000
2.806 km
极远距离
1.126093E-6 低风险 0.36
CDM_260909-235306-215706-438521
2026-09-09T
23:53:28+0000
2.342 km
极远距离
5.412371E-7 极低风险 0.3
CDM_260910-021406-215706-438521
2026-09-10T
02:14:41+0000
2.753 km
极远距离
4.312091E-7 极低风险 0.28
与全量物体交会距离演化趋势
与全量物体交会风险概率演化趋势